EW2137 Weather Reports


time (UTC)temp
C
wind
direction
speed
KPH
gust
KPH
rain 1hr
cm
rain 24hr
cm
rain mn
cm
humidity
%
barometer
mb
20260506231639 21 239 38.6 54.7 0.00 0.00 0.00 44 1011.5
20260506230038 21 231 40.2 51.5 0.00 0.00 0.00 44 1011.6
20260506224538 22 241 37.0 54.7 0.00 0.00 0.00 39 1011.9
20260506223038 22 243 41.8 54.7 0.00 0.00 0.00 39 1011.8
20260506221537 22 246 46.7 59.5 0.00 0.00 0.00 38 1011.8
20260506220038 22 232 40.2 53.1 0.00 0.00 0.00 39 1012.0
20260506214534 22 221 41.8 54.7 0.00 0.00 0.00 42 1011.9
20260506213032 22 245 38.6 56.3 0.00 0.00 0.00 44 1011.9
20260506211532 22 248 38.6 61.2 0.00 0.00 0.00 45 1011.8
20260506210032 21 239 46.7 61.2 0.00 0.00 0.00 46 1011.9
20260506204529 21 238 37.0 53.1 0.00 0.00 0.00 47 1012.0
20260506203030 21 248 40.2 57.9 0.00 0.00 0.00 49 1011.9
20260506201540 20 253 45.1 61.2 0.00 0.00 0.00 50 1011.4
20260506200028 20 234 46.7 61.2 0.00 0.00 0.00 52 1011.7
20260506194527 20 246 33.8 62.8 0.00 0.00 0.00 52 1011.9
20260506193026 20 249 45.1 62.8 0.00 0.00 0.00 49 1011.9
20260506191524 20 233 46.7 57.9 0.00 0.00 0.00 50 1012.2
20260506190023 20 232 37.0 51.5 0.00 0.00 0.00 51 1012.3
20260506184520 20 235 33.8 48.3 0.00 0.00 0.00 54 1012.4
20260506183018 19 234 37.0 54.7 0.00 0.00 0.00 57 1012.6
20260506181518 18 232 43.5 59.5 0.00 0.00 0.00 55 1012.3
20260506180016 18 240 33.8 49.9 0.00 0.00 0.00 59 1012.6
20260506174513 18 225 38.6 49.9 0.00 0.00 0.00 58 1012.7
20260506173010 17 236 38.6 54.7 0.00 0.00 0.00 60 1012.4
20260506171507 17 246 43.5 57.9 0.00 0.00 0.00 61 1012.3
20260506170005 17 253 38.6 54.7 0.00 0.00 0.00 63 1012.4
20260506164507 16 236 46.7 59.5 0.00 0.00 0.00 64 1012.4
20260506163005 16 252 43.5 57.9 0.00 0.00 0.00 65 1012.5
20260506161500 16 239 40.2 61.2 0.00 0.00 0.00 66 1012.8
20260506154602 15 264 37.0 56.3 0.00 0.00 0.00 67 1012.7
20260506153055 15 242 43.5 51.5 0.00 0.00 0.00 69 1012.4
20260506151553 15 231 45.1 57.9 0.00 0.00 0.00 70 1012.6
20260506150052 14 237 45.1 61.2 0.00 0.00 0.00 71 1012.4
20260506144548 14 240 41.8 56.3 0.00 0.00 0.00 72 1012.4
20260506143047 13 229 40.2 54.7 0.00 0.00 0.00 74 1012.3
20260506141550 13 230 37.0 54.7 0.00 0.00 0.00 75 1012.4
20260506140052 13 244 40.2 54.7 0.00 0.00 0.00 76 1012.2
20260506134540 13 248 35.4 51.5 0.00 0.00 0.00 78 1012.2
20260506133037 12 228 32.2 46.7 0.00 0.00 0.00 80 1011.9
20260506131536 11 234 30.6 37.0 0.00 0.00 0.00 82 1012.0
20260506130035 11 227 27.4 38.6 0.00 0.00 0.00 82 1011.7
20260506124532 11 227 29.0 38.6 0.00 0.00 0.00 83 1011.5
20260506123032 11 238 30.6 41.8 0.00 0.00 0.00 82 1011.3
20260506121530 11 225 32.2 41.8 0.00 0.00 0.00 82 1011.3
20260506120033 12 213 35.4 48.3 0.00 0.00 0.00 82 1011.1
20260506114527 11 225 30.6 45.1 0.00 0.00 0.00 82 1010.8
20260506113027 11 221 30.6 40.2 0.00 0.00 0.00 82 1010.9
20260506111528 11 236 27.4 41.8 0.00 0.00 0.00 83 1010.8
20260506110025 11 219 30.6 38.6 0.00 0.00 0.00 82 1010.7
20260506104523 11 229 30.6 37.0 0.00 0.00 0.00 83 1010.7
20260506103023 11 221 27.4 35.4 0.00 0.00 0.00 84 1010.8
20260506101523 11 213 29.0 37.0 0.00 0.00 0.00 84 1010.7
20260506100020 11 226 29.0 37.0 0.00 0.00 0.00 84 1010.7
20260506094519 11 214 25.7 33.8 0.00 0.00 0.00 85 1010.8
20260506093028 11 226 25.7 32.2 0.00 0.00 0.00 85 1010.6
20260506091515 11 234 24.1 33.8 0.00 0.00 0.00 85 1010.5
20260506090011 11 240 24.1 33.8 0.00 0.00 0.00 84 1010.4
20260506084513 11 210 22.5 35.4 0.00 0.00 0.00 84 1010.4
20260506083008 11 219 22.5 30.6 0.00 0.00 0.00 84 1010.4
20260506081508 12 222 24.1 33.8 0.00 0.00 0.00 83 1010.3
20260506073003 12 226 25.7 33.8 0.00 0.00 0.00 82 1009.7
20260506071558 12 216 24.1 32.2 0.00 0.00 0.00 81 1009.7
20260506061601 12 215 17.7 27.4 0.00 0.00 0.00 79 1009.4
20260506044554 15 229 14.5 20.9 0.00 0.00 0.00 72 1008.9
20260506043053 15 217 16.1 22.5 0.00 0.00 0.00 70 1008.8
20260506041604 16 213 16.1 22.5 0.00 0.00 0.00 67 1008.6
20260506040053 16 218 12.9 17.7 0.00 0.00 0.00 67 1008.5
20260506034548 16 223 17.7 20.9 0.00 0.00 0.00 65 1008.3
20260506033051 17 231 16.1 20.9 0.00 0.00 0.00 61 1008.2
20260506031548 18 227 14.5 22.5 0.00 0.00 0.00 59 1008.1
20260506030047 19 227 19.3 29.0 0.00 0.00 0.00 56 1008.0
20260506024547 20 230 19.3 25.7 0.00 0.00 0.00 53 1007.9
20260506023053 21 234 19.3 27.4 0.00 0.00 0.00 50 1007.7
20260506021545 22 239 19.3 27.4 0.00 0.00 0.00 47 1007.7
20260506020114 23 246 19.3 25.7 0.00 0.00 0.00 44 1007.6
20260506014545 23 213 17.7 24.1 0.00 0.00 0.00 43 1007.5
20260506013045 24 236 14.5 22.5 0.00 0.00 0.00 42 1007.3
20260506011548 25 259 12.9 19.3 0.00 0.00 0.00 39 1007.3
20260506010044 25 266 9.7 14.5 0.00 0.00 0.00 39 1007.2
20260506004544 26 274 8.0 12.9 0.00 0.00 0.00 37 1007.3
20260506003046 26 297 4.8 9.7 0.00 0.00 0.00 33 1007.3
20260506001548 26 248 4.8 11.3 0.00 0.00 0.00 38 1007.3
20260506000055 25 285 9.7 16.1 0.00 0.00 0.00 36 1007.4
20260505234543 25 304 11.3 20.9 0.00 0.00 0.00 39 1007.6
20260505233047 25 309 9.7 17.7 0.00 0.00 0.00 37 1007.7